EJU3620 LIEO-LIMC

Flight info

Callsign EJU3620
Flight time 1h 6m
Altitude 30000
Route OKIVA P980 DIKEL DCT RATAP DCT MEGER DCT ANAKI P860 DEVOX
Aircraft A320/M-SDE3FGHIRWY/LB1

Departure

Time 2026-05-04 17:24
Airport Olbia Costa Smeralda Airport (LIEO)

Arrival

Time 2026-05-04 18:31
Airport Milan Malpensa International Airport (LIMC)
Time Latitude Longitude Altitude Speed Heading
2026-05-04 17:09 40.90310 9.51773 34 ft 0 kts 23°
2026-05-04 17:19 40.90260 9.51836 34 ft 10 kts 142°
2026-05-04 17:20 40.90182 9.51870 34 ft 5 kts 135°
2026-05-04 17:20 40.90055 9.51736 34 ft 19 kts 236°
2026-05-04 17:20 40.89979 9.51590 34 ft 19 kts 235°
2026-05-04 17:21 40.89844 9.51334 33 ft 15 kts 236°
2026-05-04 17:21 40.89715 9.51084 34 ft 16 kts 235°
2026-05-04 17:22 40.89654 9.50970 34 ft 14 kts 235°
2026-05-04 17:22 40.89594 9.50854 34 ft 18 kts 235°
2026-05-04 17:23 40.89406 9.50498 34 ft 13 kts 234°
2026-05-04 17:23 40.89334 9.50447 34 ft 11 kts 187°
2026-05-04 17:23 40.89271 9.50621 35 ft 14 kts 66°
2026-05-04 17:24 40.89348 9.50767 33 ft 39 kts 55°
2026-05-04 17:24 40.90755 9.53520 744 ft 154 kts 55°
2026-05-04 17:25 40.91369 9.54691 1403 ft 158 kts 58°
2026-05-04 17:25 40.92808 9.57409 2220 ft 202 kts 57°
2026-05-04 17:26 40.94617 9.60804 2943 ft 249 kts 55°
2026-05-04 17:26 40.98106 9.66093 5432 ft 267 kts 19°
2026-05-04 17:27 41.01673 9.65359 6802 ft 278 kts 321°
2026-05-04 17:27 41.04905 9.62407 8582 ft 285 kts 321°
2026-05-04 17:28 41.08125 9.59244 10344 ft 289 kts 310°
2026-05-04 17:29 41.12061 9.52263 11830 ft 333 kts 302°
2026-05-04 17:29 41.16170 9.44699 14151 ft 344 kts 302°
2026-05-04 17:30 41.20436 9.36874 16183 ft 354 kts 302°
2026-05-04 17:31 41.23324 9.31495 17497 ft 361 kts 301°
2026-05-04 17:31 41.27446 9.22966 19299 ft 370 kts 298°
2026-05-04 17:32 41.30208 9.17157 20491 ft 374 kts 302°
2026-05-04 17:33 41.36676 9.11258 22171 ft 399 kts 342°
2026-05-04 17:33 41.39461 9.10834 22713 ft 409 kts 356°
2026-05-04 17:34 41.48109 9.11123 24116 ft 419 kts 357°
2026-05-04 17:34 41.51038 9.11225 24566 ft 422 kts 357°
2026-05-04 17:35 41.59891 9.11404 25785 ft 427 kts 354°
2026-05-04 17:35 41.65880 9.11309 26564 ft 433 kts 354°
2026-05-04 17:35 41.68902 9.11256 26946 ft 436 kts 354°
2026-05-04 17:36 41.71944 9.11214 27342 ft 438 kts 354°
2026-05-04 17:36 41.74998 9.11185 27740 ft 440 kts 353°
2026-05-04 17:36 41.78072 9.11161 28127 ft 443 kts 353°
2026-05-04 17:36 41.81119 9.11142 28478 ft 445 kts 353°
2026-05-04 17:37 41.84222 9.11126 28895 ft 447 kts 353°
2026-05-04 17:37 41.87344 9.11108 29196 ft 452 kts 353°
2026-05-04 17:37 41.90496 9.11087 29517 ft 454 kts 353°
2026-05-04 17:37 41.93663 9.11063 29866 ft 457 kts 353°
2026-05-04 17:38 41.96849 9.11037 30040 ft 456 kts 353°
2026-05-04 17:38 41.99963 9.11020 30047 ft 440 kts 352°
2026-05-04 17:38 42.03000 9.11008 30047 ft 433 kts 352°
2026-05-04 17:39 42.12010 9.10932 30052 ft 431 kts 352°
2026-05-04 17:39 42.18015 9.10867 30057 ft 431 kts 352°
2026-05-04 17:40 42.24020 9.10816 30064 ft 432 kts 352°
2026-05-04 17:40 42.30015 9.10769 30068 ft 433 kts 352°
2026-05-04 17:41 42.36047 9.10726 30057 ft 433 kts 352°
2026-05-04 17:41 42.42069 9.10683 30033 ft 432 kts 352°
2026-05-04 17:42 42.48082 9.10637 30026 ft 432 kts 352°
2026-05-04 17:42 42.54087 9.10594 30023 ft 432 kts 352°
2026-05-04 17:43 42.60107 9.10542 30026 ft 433 kts 352°
2026-05-04 17:43 42.66106 9.10496 30046 ft 433 kts 352°
2026-05-04 17:44 42.72132 9.10466 30044 ft 435 kts 354°
2026-05-04 17:44 42.78202 9.11133 30037 ft 438 kts 357°
2026-05-04 17:45 42.84270 9.11840 30029 ft 438 kts 357°
2026-05-04 17:45 42.90342 9.12548 30045 ft 438 kts 357°
2026-05-04 17:46 42.96411 9.13252 30032 ft 437 kts 357°
2026-05-04 17:46 43.02478 9.13957 30029 ft 437 kts 357°
2026-05-04 17:47 43.08540 9.14677 30037 ft 437 kts 358°
2026-05-04 17:47 43.14597 9.15394 30039 ft 437 kts 358°
2026-05-04 17:48 43.20605 9.16099 30043 ft 436 kts 358°
2026-05-04 17:48 43.26651 9.16807 30054 ft 436 kts 358°
2026-05-04 17:49 43.32648 9.17033 30058 ft 425 kts 347°
2026-05-04 17:49 43.38237 9.15012 30054 ft 411 kts 333°
2026-05-04 17:50 43.43590 9.12260 30046 ft 410 kts 333°
2026-05-04 17:50 43.48944 9.09512 30070 ft 410 kts 333°
2026-05-04 17:51 43.54292 9.06775 30061 ft 410 kts 334°
2026-05-04 17:51 43.59605 9.04049 30050 ft 410 kts 334°
2026-05-04 17:52 43.64949 9.01297 30045 ft 410 kts 333°
2026-05-04 17:52 43.70295 8.98534 30050 ft 410 kts 334°
2026-05-04 17:53 43.75646 8.95767 30051 ft 410 kts 334°
2026-05-04 17:53 43.80998 8.92998 30054 ft 410 kts 334°
2026-05-04 17:54 43.86350 8.90216 30056 ft 411 kts 334°
2026-05-04 17:54 43.91699 8.87429 30059 ft 411 kts 333°
2026-05-04 17:55 43.97028 8.84652 30054 ft 412 kts 333°
2026-05-04 17:55 44.02406 8.81846 30060 ft 413 kts 333°
2026-05-04 17:56 44.07792 8.79039 29715 ft 412 kts 333°
2026-05-04 17:56 44.10464 8.77643 29192 ft 408 kts 333°
2026-05-04 17:56 44.13104 8.76258 28683 ft 403 kts 333°
2026-05-04 17:57 44.15716 8.74889 28178 ft 399 kts 333°
2026-05-04 17:57 44.18319 8.73580 27697 ft 397 kts 338°
2026-05-04 17:57 44.21033 8.72805 27218 ft 400 kts 349°
2026-05-04 17:57 44.23824 8.72709 26728 ft 401 kts 357°
2026-05-04 17:58 44.26607 8.72834 26253 ft 398 kts 358°
2026-05-04 17:58 44.29368 8.72955 25780 ft 396 kts 358°
2026-05-04 17:58 44.32111 8.73076 25317 ft 394 kts 359°
2026-05-04 17:58 44.34842 8.73193 24838 ft 392 kts 359°
2026-05-04 17:59 44.37560 8.73307 24346 ft 390 kts 359°
2026-05-04 17:59 44.40233 8.73421 23863 ft 389 kts 360°
2026-05-04 17:59 44.45634 8.73657 22788 ft 386 kts 360°
2026-05-04 18:00 44.48316 8.73772 22272 ft 385 kts 360°
2026-05-04 18:00 44.50987 8.73886 21762 ft 384 kts 360°
2026-05-04 18:00 44.53651 8.74000 21246 ft 383 kts 359°
2026-05-04 18:00 44.56310 8.74114 20726 ft 382 kts 359°
2026-05-04 18:01 44.58963 8.74228 20209 ft 381 kts 359°
2026-05-04 18:01 44.61616 8.74344 19687 ft 381 kts 359°
2026-05-04 18:01 44.64270 8.74461 19169 ft 382 kts 359°
2026-05-04 18:02 44.69521 8.74669 18596 ft 367 kts 355°
2026-05-04 18:02 44.72015 8.74386 18472 ft 353 kts 351°
2026-05-04 18:02 44.74445 8.74068 18171 ft 348 kts 351°
2026-05-04 18:02 44.76852 8.73755 17754 ft 347 kts 352°
2026-05-04 18:03 44.79247 8.73443 17289 ft 343 kts 352°
2026-05-04 18:03 44.81610 8.73135 16591 ft 340 kts 352°
2026-05-04 18:03 44.83952 8.72828 15928 ft 336 kts 352°
2026-05-04 18:03 44.86271 8.72524 15321 ft 332 kts 352°
2026-05-04 18:04 44.88559 8.72226 14766 ft 328 kts 352°
2026-05-04 18:04 44.90820 8.71932 14299 ft 324 kts 352°
2026-05-04 18:04 44.95316 8.71333 13394 ft 325 kts 352°
2026-05-04 18:05 44.97567 8.71031 12970 ft 326 kts 352°
2026-05-04 18:05 44.99814 8.70731 12566 ft 325 kts 353°
2026-05-04 18:05 45.02065 8.70431 12265 ft 323 kts 353°
2026-05-04 18:05 45.04296 8.70138 11897 ft 321 kts 353°
2026-05-04 18:06 45.08713 8.69558 11153 ft 320 kts 353°
2026-05-04 18:06 45.10915 8.69265 10599 ft 317 kts 354°
2026-05-04 18:06 45.13107 8.68976 9933 ft 316 kts 354°
2026-05-04 18:07 45.15280 8.68690 9306 ft 311 kts 355°
2026-05-04 18:07 45.17421 8.68407 8858 ft 307 kts 355°
2026-05-04 18:07 45.18826 8.68222 8571 ft 304 kts 355°
2026-05-04 18:07 45.20934 8.67945 8105 ft 304 kts 355°
2026-05-04 18:08 45.23032 8.67664 7755 ft 301 kts 354°
2026-05-04 18:08 45.25039 8.66967 7450 ft 295 kts 339°
2026-05-04 18:08 45.26898 8.65805 7121 ft 290 kts 334°
2026-05-04 18:08 45.28711 8.64570 6775 ft 287 kts 334°
2026-05-04 18:09 45.32264 8.62098 6084 ft 281 kts 334°
2026-05-04 18:09 45.35781 8.59647 6059 ft 282 kts 334°
2026-05-04 18:10 45.37571 8.58615 6049 ft 270 kts 351°
2026-05-04 18:10 45.39335 8.58920 6052 ft 250 kts 29°
2026-05-04 18:10 45.40526 8.60585 6057 ft 241 kts 68°
2026-05-04 18:10 45.40705 8.62868 6057 ft 234 kts 108°
2026-05-04 18:11 45.39857 8.64777 6057 ft 231 kts 142°
2026-05-04 18:11 45.38447 8.65833 6059 ft 231 kts 162°
2026-05-04 18:11 45.36884 8.66351 6057 ft 231 kts 172°
2026-05-04 18:11 45.35275 8.66467 6084 ft 232 kts 180°
2026-05-04 18:12 45.33664 8.66533 6087 ft 232 kts 175°
2026-05-04 18:12 45.32059 8.66734 6084 ft 232 kts 172°
2026-05-04 18:12 45.30470 8.67114 6084 ft 231 kts 168°
2026-05-04 18:12 45.28893 8.67586 6083 ft 231 kts 167°
2026-05-04 18:13 45.27321 8.68072 6081 ft 231 kts 167°
2026-05-04 18:13 45.25742 8.68548 6084 ft 232 kts 168°
2026-05-04 18:13 45.22588 8.69455 6084 ft 230 kts 168°
2026-05-04 18:14 45.21022 8.69893 6084 ft 229 kts 168°
2026-05-04 18:14 45.19459 8.70328 6081 ft 225 kts 168°
2026-05-04 18:14 45.17962 8.70742 6103 ft 217 kts 168°
2026-05-04 18:15 45.15014 8.71558 6099 ft 216 kts 168°
2026-05-04 18:15 45.11951 8.72399 5266 ft 226 kts 169°
2026-05-04 18:15 45.10428 8.72817 5039 ft 220 kts 169°
2026-05-04 18:16 45.08955 8.73221 4967 ft 213 kts 169°
2026-05-04 18:16 45.07495 8.73622 4921 ft 214 kts 169°
2026-05-04 18:16 45.06055 8.74015 4872 ft 213 kts 169°
2026-05-04 18:17 45.03348 8.75505 4779 ft 214 kts 131°
2026-05-04 18:17 45.02748 8.77417 4730 ft 218 kts 96°
2026-05-04 18:17 45.03292 8.81672 4630 ft 221 kts 81°
2026-05-04 18:18 45.03579 8.83804 4581 ft 220 kts 81°
2026-05-04 18:18 45.03907 8.85899 4532 ft 218 kts 69°
2026-05-04 18:18 45.04826 8.87585 4474 ft 223 kts 33°
2026-05-04 18:18 45.06280 8.88270 4425 ft 223 kts 358°
2026-05-04 18:19 45.09257 8.87176 4321 ft 224 kts 347°
2026-05-04 18:19 45.10791 8.86800 4275 ft 224 kts 349°
2026-05-04 18:19 45.12331 8.86469 4224 ft 224 kts 350°
2026-05-04 18:20 45.13869 8.86130 4166 ft 224 kts 349°
2026-05-04 18:20 45.15415 8.85768 4124 ft 226 kts 349°
2026-05-04 18:20 45.16970 8.85385 4067 ft 227 kts 349°
2026-05-04 18:20 45.18524 8.84988 4013 ft 227 kts 349°
2026-05-04 18:21 45.20074 8.84579 3964 ft 226 kts 348°
2026-05-04 18:21 45.21615 8.84166 4006 ft 226 kts 348°
2026-05-04 18:21 45.23165 8.83749 4018 ft 227 kts 348°
2026-05-04 18:21 45.24712 8.83332 4003 ft 226 kts 349°
2026-05-04 18:22 45.26285 8.83219 4010 ft 226 kts 356°
2026-05-04 18:22 45.27847 8.82982 4004 ft 225 kts 349°
2026-05-04 18:22 45.29391 8.82585 4008 ft 225 kts 348°
2026-05-04 18:22 45.30903 8.82169 4011 ft 220 kts 348°
2026-05-04 18:23 45.32380 8.81765 4008 ft 208 kts 348°
2026-05-04 18:23 45.33789 8.81379 4010 ft 205 kts 347°
2026-05-04 18:23 45.35185 8.80998 4018 ft 201 kts 348°
2026-05-04 18:23 45.36493 8.80641 4016 ft 183 kts 347°
2026-05-04 18:24 45.37690 8.80314 3968 ft 169 kts 347°
2026-05-04 18:24 45.38819 8.80005 3866 ft 161 kts 347°
2026-05-04 18:24 45.39907 8.79706 3794 ft 158 kts 347°
2026-05-04 18:24 45.40968 8.79416 3714 ft 156 kts 347°
2026-05-04 18:25 45.42039 8.79122 3625 ft 157 kts 347°
2026-05-04 18:25 45.43108 8.78829 3547 ft 156 kts 347°
2026-05-04 18:25 45.44167 8.78538 3464 ft 154 kts 348°
2026-05-04 18:25 45.45208 8.78253 3381 ft 151 kts 348°
2026-05-04 18:26 45.46231 8.77972 3303 ft 148 kts 347°
2026-05-04 18:26 45.47227 8.77699 3230 ft 144 kts 347°
2026-05-04 18:26 45.48201 8.77432 3158 ft 142 kts 347°
2026-05-04 18:26 45.49168 8.77166 3100 ft 142 kts 347°
2026-05-04 18:27 45.50132 8.76901 2963 ft 141 kts 348°
2026-05-04 18:27 45.51091 8.76637 2789 ft 140 kts 348°
2026-05-04 18:27 45.52044 8.76376 2620 ft 138 kts 348°
2026-05-04 18:27 45.52986 8.76116 2438 ft 137 kts 348°
2026-05-04 18:28 45.53920 8.75859 2257 ft 136 kts 348°
2026-05-04 18:28 45.54834 8.75608 2080 ft 135 kts 348°
2026-05-04 18:28 45.55757 8.75354 1893 ft 134 kts 348°
2026-05-04 18:28 45.56674 8.75101 1716 ft 134 kts 348°
2026-05-04 18:29 45.57593 8.74848 1538 ft 135 kts 348°
2026-05-04 18:29 45.58519 8.74593 1352 ft 136 kts 348°
2026-05-04 18:29 45.59447 8.74337 1172 ft 136 kts 348°
2026-05-04 18:29 45.60380 8.74080 999 ft 136 kts 349°
2026-05-04 18:30 45.62227 8.73582 747 ft 129 kts 345°
2026-05-04 18:30 45.62973 8.73359 738 ft 73 kts 349°
2026-05-04 18:30 45.63389 8.73245 739 ft 55 kts 348°
2026-05-04 18:31 45.63700 8.73113 742 ft 33 kts 316°
2026-05-04 18:31 45.63828 8.72878 741 ft 26 kts 303°
2026-05-04 18:31 45.63925 8.72780 739 ft 16 kts 336°
2026-05-04 18:31 45.64033 8.72762 739 ft 16 kts 354°
2026-05-04 18:32 45.64152 8.72730 740 ft 18 kts 348°
2026-05-04 18:32 45.64260 8.72700 741 ft 16 kts 348°
2026-05-04 18:32 45.64379 8.72676 740 ft 18 kts 357°
2026-05-04 18:32 45.64470 8.72643 741 ft 8 kts 296°
2026-05-04 18:33 45.64508 8.72639 740 ft 8 kts 14°
2026-05-04 18:33 45.64572 8.72633 739 ft 9 kts 346°
2026-05-04 18:33 45.64614 8.72603 740 ft 6 kts 284°
2026-05-04 18:33 45.64609 8.72551 740 ft 5 kts 258°
2026-05-04 18:34 45.64607 8.72537 740 ft 1 kts 259°
2026-05-04 18:34 45.64604 8.72514 740 ft 3 kts 258°
2026-05-04 18:34 45.64603 8.72504 740 ft 0 kts 259°